Simultaneous Nadir Overpasses (SNOs) Predictions

Prediction of SNOs between GOES-16 and TERRA Satellite Orbit:

Table of predicted SNOs for the next 14.0 days since TLE Epoch: 4/13/2019
Index Date Time (GOES-16) GOES-16 Lat,Lon TERRA Lat,Lon Distance(km) Time Diff (sec)
1 04/13/2019 15:30:20 -0.02, -75.21 -0.02, -75.30 10.90 80
2 04/15/2019 15:20:49 -0.03, -75.21 -0.63, -72.35 325.44 80
3 04/16/2019 03:42:14 0.03, -75.20 -0.45, -77.55 265.90 80
4 04/18/2019 03:27:23 0.03, -75.22 0.13, -74.59 71.13 80
5 04/20/2019 03:15:13 -0.00, -75.23 0.75, -71.63 409.14 80
6 04/20/2019 15:39:09 0.00, -75.25 0.34, -76.79 175.78 80
7 04/22/2019 15:24:20 -0.01, -75.27 -0.31, -73.85 161.85 80
8 04/23/2019 03:48:25 0.00, -75.27 -0.78, -79.05 428.89 80
9 04/24/2019 15:12:11 -0.01, -75.30 -0.94, -70.90 499.79 80
10 04/25/2019 03:36:16 0.01, -75.30 -0.16, -76.10 90.84 80




NCC Satellite Simultaneous Nadir Overpasses (SNOs) Prediction Service
